Tracking 28902 objects as of 19-May-2024
HD Live streaming from Space Station
objects crossing your sky now

COSMOS 249 DEB *

Track COSMOS 249 DEB * now!
10-day predictions


NORAD ID: 3790
Int'l Code: 1968-091AX
Perigee: 590.6 km
Apogee: 1,659.7 km
Inclination: 63.0 °
Period: 107.7 minutes
Semi major axis: 7496 km
RCS: 0.0825 m2 (small)
Launch date: October 20, 1968
Source: Commonwealth of Independent States (former USSR) (CIS)
Launch site: TYURATAM MISSILE AND SPACE COMPLEX (TTMTR)

Note: This is SATELLITE DEBRIS
Your satellite tracking list
Your tracking list is empty




NASA's NSSDC Master Catalog

Two Line Element Set (TLE):
1 03790U 68091AX  24139.71189086  .00002218  00000-0  97680-3 0  9998
2 03790  62.9965 126.8792 0713107 245.2311 107.2921 13.37663810665759
Source of the keplerian elements: AFSPC